Location: Grange Rosano
(44.4500°N, 6.9667°E)
Time: 07:14:21
(UTC+00:00)

Cosmos 1674 Rocket - Pass Details

Date: 26 May 2022
Orbit: 603 x 629 km, 82.5° (Epoch: 01 July)

Event Time Altitude Azimuth Distance (km) Brightness Sun altitude
Exits shadow 00:07:03 79° 283° (WNW) 625 3.4 -23.9°
Drops below altitude 10° 00:11:22 10° 6° (N) 1,963 7.2 -23.8°
Sets 00:13:35 0° 8° (N) 2,869 8.4 -23.7°
